Waarnemingen

Advertentie
Mijn weer
K14A, Nederland (6204): temperatuur & dauwpunt: 11.12.2017 01:00:00 - 17.12.2017 01:00:00 (CET)K14A, Nederland (6204): windsnelheid & windstoten: 11.12.2017 01:00:00 - 17.12.2017 01:00:00 (CET)K14A, Nederland (6204): windrichting: 11.12.2017 01:00:00 - 17.12.2017 01:00:00 (CET)K14A, Nederland (6204): luchtdruk: 11.12.2017 01:00:00 - 17.12.2017 01:00:00 (CET)K14A, Nederland (6204): zicht: 11.12.2017 01:00:00 - 17.12.2017 01:00:00 (CET)
Datum & Tijd tt [°C] td [°C] ff [km/u] ff [kn] fx [km/u] fx [kn] dd ppp [hPa] vv [km]
17.12.2017 01:00:00 6,5 1,2 34 18 32 18 NW 1018,6 10
17.12.2017 00:00:00 5,8 1,7 34 18 40 21 NW 1018,0 10
16.12.2017 23:00:00 5,6 2,0 35 19 47 25 NW 1017,5 10
16.12.2017 22:00:00 6,2 2,0 37 20 40 21 NW 1016,9 10
16.12.2017 21:00:00 6,1 1,9 34 18 40 21 WNW 1016,3 10
16.12.2017 20:00:00 5,8 1,7 37 20 43 23 NW 1015,9 10
16.12.2017 19:00:00 5,7 1,2 37 20 47 25 WNW 1015,3 10
16.12.2017 18:00:00 6,2 1,3 35 19 43 23 WNW 1014,6 10
16.12.2017 17:00:00 5,6 2,0 26 14 40 21 - 1014,1 10
16.12.2017 16:00:00 5,9 1,6 41 22 43 23 NW 1013,7 10
16.12.2017 15:00:00 6,1 2,2 42 23 47 25 WNW 1013,3 10
16.12.2017 14:00:00 6,3 1,0 41 22 43 23 WNW 1012,6 10
16.12.2017 13:00:00 6,5 0,8 44 24 47 25 WNW 1012,2 10
16.12.2017 12:00:00 6,5 1,4 46 25 47 25 NW 1011,9 10
16.12.2017 11:00:00 6,2 1,3 46 25 47 25 NW 1011,7 10
16.12.2017 10:00:00 6,5 0,9 48 26 47 25 NW 1010,6 10
16.12.2017 09:00:00 6,4 1,2 35 19 50 27 NW 1010,0 10
16.12.2017 08:00:00 5,2 1,5 46 25 50 27 NW 1009,7 10
16.12.2017 07:00:00 6,2 1,6 44 24 47 25 NW 1008,7 10
16.12.2017 06:00:00 6,2 1,0 37 20 43 23 NW 1008,2 10
16.12.2017 05:00:00 4,6 1,3 46 25 47 25 N 1007,8 10
16.12.2017 04:00:00 6,6 1,4 41 22 43 23 NW 1007,2 10
16.12.2017 03:00:00 6,5 1,1 35 19 40 21 NW 1006,8 10
16.12.2017 02:00:00 6,6 1,8 35 19 43 23 NNW 1006,0 10
16.12.2017 01:00:00 7,1 1,6 41 22 40 21 NNW 1005,5 10
16.12.2017 00:00:00 7,3 1,7 41 22 47 25 NNW 1004,7 10
15.12.2017 23:00:00 6,6 1,2 42 23 50 27 N 1004,2 10
15.12.2017 22:00:00 7,5 1,3 44 24 47 25 N 1002,9 10
15.12.2017 21:00:00 7,1 2,7 48 26 47 25 N 1002,1 10
15.12.2017 20:00:00 7,4 3,4 42 23 47 25 N 1001,0 10
15.12.2017 19:00:00 6,9 3,0 24 13 36 19 N 1000,1 10
15.12.2017 18:00:00 6,8 2,6 26 14 32 18 NNW 999,0 10
15.12.2017 17:00:00 7,2 2,2 21 11 22 12 N 998,2 10
15.12.2017 16:00:00 7,0 2,1 22 12 25 14 N 997,3 10
15.12.2017 15:00:00 6,5 1,3 16 9 29 16 N 996,3 10
15.12.2017 14:00:00 6,6 1,2 22 12 25 14 NNO 995,3 10
15.12.2017 13:00:00 6,6 1,6 18 10 22 12 NO 994,3 10
15.12.2017 12:00:00 6,3 1,9 21 11 22 12 NNO 993,4 10
15.12.2017 11:00:00 6,3 2,0 26 14 25 14 NO 992,2 10
15.12.2017 10:00:00 6,2 1,0 9 5 11 6 N 991,3 10
15.12.2017 09:00:00 6,4 1,4 8 4 14 8 ZZW 990,4 10
15.12.2017 08:00:00 6,0 0,0 15 8 25 14 ZW 989,3 10
15.12.2017 07:00:00 5,9 0,5 29 16 32 18 WZW 988,7 10
15.12.2017 06:00:00 5,9 1,4 31 17 32 18 WZW 988,0 10
15.12.2017 05:00:00 5,8 0,6 29 16 29 16 ZW 987,7 10
15.12.2017 04:00:00 5,7 1,5 28 15 29 16 WZW 987,3 10
15.12.2017 03:00:00 5,6 2,2 29 16 32 18 WZW 986,8 10
15.12.2017 02:00:00 5,7 2,3 39 21 43 23 WZW 986,7 10
15.12.2017 01:00:00 6,2 2,3 41 22 40 21 WZW 986,6 10
15.12.2017 00:00:00 6,4 1,8 41 22 43 23 ZW 986,4 10
14.12.2017 23:00:00 6,2 0,8 37 20 36 19 ZW 986,1 10
14.12.2017 22:00:00 6,2 0,8 39 21 40 21 WZW 986,5 10
14.12.2017 21:00:00 6,2 0,9 37 20 40 21 WZW 986,7 10
14.12.2017 20:00:00 6,0 0,8 35 19 40 21 WZW 986,8 10
14.12.2017 19:00:00 6,0 0,6 41 22 40 21 WZW 986,7 10
14.12.2017 18:00:00 6,0 1,5 37 20 40 21 WZW 986,8 10
14.12.2017 17:00:00 6,1 1,6 41 22 43 23 WZW 987,2 10
14.12.2017 16:00:00 5,8 1,1 44 24 50 27 WZW 987,3 10
14.12.2017 15:00:00 5,8 1,6 48 26 54 29 WZW 987,4 10
14.12.2017 14:00:00 5,2 2,0 52 28 58 31 WZW 987,9 10
14.12.2017 13:00:00 5,6 2,1 52 28 50 27 WZW 987,9 10
14.12.2017 12:00:00 5,9 1,4 57 31 58 31 WZW 988,2 10
14.12.2017 11:00:00 5,7 1,4 57 31 61 33 W 988,4 10
14.12.2017 10:00:00 3,8 0,7 61 33 65 35 W 988,1 10
14.12.2017 09:00:00 5,4 1,6 57 31 65 35 W 987,7 10
14.12.2017 08:00:00 5,3 1,3 67 36 65 35 W 987,7 10
14.12.2017 07:00:00 5,9 1,7 67 36 72 39 W 987,1 10
14.12.2017 06:00:00 5,9 1,2 67 36 65 35 W 986,9 10
14.12.2017 05:00:00 6,0 1,5 65 35 68 37 W 986,4 10
14.12.2017 04:00:00 5,7 1,9 57 31 61 33 W 985,9 10
14.12.2017 03:00:00 5,9 1,6 50 27 54 29 W 985,6 10
14.12.2017 02:00:00 6,3 1,3 52 28 54 29 W 985,1 10
14.12.2017 01:00:00 6,2 1,9 55 30 61 33 W 985,0 10
14.12.2017 00:00:00 6,6 1,9 57 31 61 33 W 985,6 10
13.12.2017 23:00:00 6,7 2,1 52 28 68 37 W 984,9 10
13.12.2017 22:00:00 7,0 3,3 67 36 72 39 W 984,9 10
13.12.2017 21:00:00 7,2 4,6 46 25 72 39 W 983,8 10
13.12.2017 20:00:00 6,4 3,9 48 26 72 39 WNW 983,8 10
13.12.2017 19:00:00 7,3 5,9 54 29 65 35 WZW 985,0 6
13.12.2017 18:00:00 7,7 6,2 52 28 54 29 ZZW 985,7 10
13.12.2017 17:00:00 7,9 5,2 46 25 54 29 ZZW 987,7 10
13.12.2017 16:00:00 7,7 4,9 52 28 50 27 ZZW 989,5 10
13.12.2017 15:00:00 7,5 4,9 48 26 50 27 ZW 990,9 10
13.12.2017 14:00:00 7,3 5,0 44 24 43 23 WZW 992,2 10
13.12.2017 13:00:00 7,2 4,8 41 22 40 21 WZW 993,6 10
13.12.2017 12:00:00 6,9 5,1 44 24 43 23 WZW 994,9 10
13.12.2017 11:00:00 7,1 5,4 35 19 36 19 W 995,6 10
13.12.2017 10:00:00 7,2 5,7 34 18 40 21 W 995,9 10
13.12.2017 09:00:00 7,7 6,4 41 22 47 25 W 996,6 10
13.12.2017 08:00:00 7,5 6,9 57 31 61 33 WZW 997,5 5
13.12.2017 07:00:00 7,3 6,0 70 38 76 41 Z 997,3 8
13.12.2017 06:00:00 7,1 5,2 68 37 72 39 ZZW 998,3 10
13.12.2017 05:00:00 7,2 5,0 67 36 83 45 ZZW 999,3 10
13.12.2017 04:00:00 7,2 4,8 68 37 76 41 ZZW 1000,8 10
13.12.2017 03:00:00 7,8 4,4 65 35 72 39 ZZW 1002,1 10
13.12.2017 02:00:00 8,1 3,4 59 32 65 35 ZZW 1003,1 10
13.12.2017 01:00:00 7,2 2,0 59 32 58 31 ZZW 1004,7 10
13.12.2017 00:00:00 6,8 1,2 55 30 54 29 ZZW 1005,9 10
12.12.2017 23:00:00 6,3 1,0 55 30 54 29 ZZW 1006,7 10
12.12.2017 22:00:00 5,8 0,6 50 27 54 29 ZZW 1007,7 10
12.12.2017 21:00:00 5,8 0,4 46 25 47 25 ZW 1007,8 10
12.12.2017 20:00:00 5,9 0,5 44 24 47 25 ZW 1008,1 10
12.12.2017 19:00:00 6,1 1,8 37 20 36 19 ZW 1008,6 10
12.12.2017 18:00:00 6,1 2,5 31 17 32 18 WZW 1008,1 10
12.12.2017 17:00:00 6,6 2,1 37 20 40 21 W 1008,1 10
12.12.2017 16:00:00 6,7 1,9 42 23 47 25 W 1007,9 10
12.12.2017 15:00:00 7,1 0,8 37 20 40 21 W 1007,1 10
12.12.2017 14:00:00 7,3 -0,6 26 14 32 18 W 1006,4 10
12.12.2017 13:00:00 6,6 0,3 21 11 25 14 WZW 1005,8 10
12.12.2017 12:00:00 5,7 0,4 21 11 32 18 - 1005,3 10
12.12.2017 11:00:00 5,5 -0,3 21 11 43 23 - 1004,6 10
12.12.2017 10:00:00 5,8 -0,6 26 14 47 25 NNW 1003,5 10
12.12.2017 09:00:00 6,0 -0,5 34 18 36 19 NW 1002,8 10
12.12.2017 08:00:00 5,9 0,2 37 20 43 23 NNW 1001,6 10
12.12.2017 07:00:00 5,1 0,2 50 27 58 31 NNW 999,9 10
12.12.2017 06:00:00 5,1 0,8 44 24 54 29 N 998,6 10
12.12.2017 05:00:00 5,6 0,4 37 20 47 25 NW 997,6 10
12.12.2017 04:00:00 6,3 -2,9 39 21 43 23 N 995,7 10
12.12.2017 03:00:00 5,1 -1,1 37 20 61 33 N 994,8 10
12.12.2017 02:00:00 5,0 0,0 31 17 76 41 N 993,1 10
12.12.2017 01:00:00 4,3 -1,0 50 27 54 29 NNW 992,0 10
12.12.2017 00:00:00 5,3 0,6 31 17 65 35 N 991,2 10
11.12.2017 23:00:00 5,1 0,1 48 26 61 33 NNO 989,4 10
11.12.2017 22:00:00 4,5 0,6 65 35 72 39 NNO 988,8 10
11.12.2017 21:00:00 5,7 -0,9 54 29 68 37 NNO 987,5 10
11.12.2017 20:00:00 5,3 -1,8 50 27 58 31 NNO 986,1 10
11.12.2017 19:00:00 5,0 0,4 55 30 54 29 NO 985,6 10
11.12.2017 18:00:00 4,8 -0,1 50 27 50 27 NO 984,7 10
11.12.2017 17:00:00 3,6 1,0 50 27 50 27 NO 984,0 10
11.12.2017 16:00:00 4,2 -0,4 41 22 43 23 ONO 983,6 10
11.12.2017 15:00:00 4,1 -0,6 41 22 43 23 O 983,3 10
11.12.2017 14:00:00 4,1 -0,6 44 24 47 25 O 983,5 10
11.12.2017 13:00:00 4,2 -0,7 42 23 47 25 O 983,4 10
11.12.2017 12:00:00 4,4 -0,2 39 21 40 21 O 984,1 10
11.12.2017 11:00:00 5,0 0,3 42 23 40 21 O 984,2 10
11.12.2017 10:00:00 6,2 0,4 31 17 32 18 O 984,4 10
11.12.2017 09:00:00 5,8 0,5 26 14 36 19 ONO 984,1 10
11.12.2017 08:00:00 5,6 0,6 28 15 32 18 NO 983,1 10
11.12.2017 07:00:00 5,5 0,3 22 12 25 14 NO 983,0 10
11.12.2017 06:00:00 5,4 0,7 15 8 14 8 NNO 983,5 10
11.12.2017 05:00:00 5,3 0,8 4 2 7 4 - 984,6 10
11.12.2017 04:00:00 7,0 2,6 8 4 22 12 NNW 984,2 10
11.12.2017 03:00:00 4,7 1,5 5 3 18 10 - 983,7 10
11.12.2017 02:00:00 5,2 0,5 8 4 18 10 N 982,5 10
11.12.2017 01:00:00 5,3 -0,4 11 6 14 8 NNO 982,3 10

tt = temperatuur
td = dauwpunt
ff = windsnelheid
fx = windstoten
dd = windrichting
ppp = luchtdruk
vv = zicht

Weerstations in de omgeving